星链-33746 (STARLINK-33746)

导读

STARLINK-33746是美国太空探索技术公司SpaceX星链星座中的一颗卫星,于2025年4月4日发射入轨。星链项目旨在构建覆盖全球的低轨卫星互联网星座,为全球用户提供高速宽带网络服务,尤其服务偏远地区、海上、航空等场景,该卫星加入后进一步扩充了星链星座的服务覆盖能力与网络容量。

Basic Information
目录编号:
63446
目录名称:
STARLINK-33746
国际标识:
2025-069P
轨道中心:
EARTH
卫星名称:
星链-33746
卫星全名:
星链-33746 (STARLINK-33746)
卫星状态:
在轨 (已飞行518 天)
发射日期:
2025-04-04 UTC
国别 :
美国 (US)
星等 :
--
Orbit Information
数据来源 国际轨道数据
星历时间: 2026-09-02T03:41:48+0800
2天前
查看轨道信息
半长轴: 6840.816km
偏心率: 0.0000927
轨道倾角: 53.161°
近地点辐角 76.561°
升交点赤经 37.079°
平近点角 283.550°
近地点: 462.044km
远地点: 463.314km
周期: 93.847分钟
每日圈数: 15.344084
Detailed Information
固有亮度:
5
最大亮度:
2.5
卫星平台:
Starlink V1.0
覆盖范围:
全球
运营商:
太空探索技术公司
运营商所在国:
美国
制造商(研发单位):
太空探索技术公司
制造商所在国:
美国
使用方式:
暂无
Satellite Introduction
Starlink 计划是 SpaceX 推出的全球卫星互联网项目,通过发射低轨道卫星,为全球尤其是偏远地区提供高速、低延迟的互联网服务。自 2019 年起,Starlink 已部署数千颗卫星,旨在缩小全球数字鸿沟,推动互联网普及。该项目还为军事、航空等行业提供通信支持,带来广泛经济效益。
2D Orbit Map
3D Orbit Map
Orbit Altitude Analysis Chart
Orbit Inclination Analysis Chart
Orbit Comprehensive Analysis Chart
View Comprehensive Chart
Conjunction Data List
Event ID Objects TCA Miss Dist (km) Collision Risk Probability Collision Risk Index (CRI) Action
CDM_260904-152405-326806-344622
2026-09-04T
15:24:45+0000
0.432 km
远距离
1.917708E-4 高风险 0.81
CDM_260904-190906-166706-344622
2026-09-04T
19:09:08+0000
0.682 km
远距离
4.2387E-5 中风险 0.68
CDM_260905-013405-326806-344621
2026-09-05T
01:34:24+0000
1.352 km
极远距离
5.959373E-6 低风险 0.51
CDM_260904-204005-855006-344621
2026-09-04T
20:40:09+0000
1.393 km
极远距离
5.320398E-6 低风险 0.5
CDM_260904-190605-855006-344621
2026-09-04T
19:06:21+0000
1.544 km
极远距离
3.822275E-6 低风险 0.47
CDM_260905-003706-166706-344621
2026-09-05T
00:37:24+0000
1.463 km
极远距离
3.335869E-6 低风险 0.45
CDM_260905-120705-389306-344621
2026-09-05T
12:07:59+0000
2.182 km
极远距离
2.0028E-6 低风险 0.41
CDM_260905-030805-326806-344621
2026-09-05T
03:08:11+0000
2.034 km
极远距离
1.796617E-6 低风险 0.4
CDM_260905-121805-199306-344621
2026-09-05T
12:18:00+0000
2.095 km
极远距离
1.657907E-6 低风险 0.39
CDM_260905-021106-166706-344621
2026-09-05T
02:11:12+0000
1.875 km
极远距离
1.635133E-6 低风险 0.39